Location: Austin
(30.3000°N, 97.7500°W)
Time: 11:54:58
(UTC-05:00)

BREEZE-M DEB - Pass Details

Date: 26 May 2023
Orbit: 755 x 34961 km, 45.3° (Epoch: 30 May)

Event Time Altitude Azimuth Distance (km) Brightness Sun altitude
Rises 22:47:01 0° 306° (NW) 3,474 8.2 -25.5°
Reaches altitude 10° 22:49:17 10° 306° (NW) 2,313 7.0 -25.9°
Maximum altitude 22:53:24 85° 218° (SW) 836 3.5 -26.4°
Enters shadow 22:53:41 78° 152° (SSE) 867 3.5 -26.5°
